Stations météo

réclame
Mon MeteoGroup
Cazaux, France (7502): Température de l'air & dewpoint: 12.06.2018 13:00:00 - 18.06.2018 13:00:00 (CEST)Cazaux, France (7502): Température de l'air 5cm: 12.06.2018 13:00:00 - 18.06.2018 13:00:00 (CEST)Cazaux, France (7502): Température de l'air -20cm & Température de l'air -100cm: 12.06.2018 13:00:00 - 18.06.2018 13:00:00 (CEST)Cazaux, France (7502): Vitesse du vent & gusts: 12.06.2018 13:00:00 - 18.06.2018 13:00:00 (CEST)Cazaux, France (7502): Direction du vent: 12.06.2018 13:00:00 - 18.06.2018 13:00:00 (CEST)Cazaux, France (7502): reduced air pressure: 12.06.2018 13:00:00 - 18.06.2018 13:00:00 (CEST)Cazaux, France (7502): visibility: 12.06.2018 13:00:00 - 18.06.2018 13:00:00 (CEST)Cazaux, France (7502): Quantités de précipitations: 12.06.2018 13:00:00 - 18.06.2018 13:00:00 (CEST)
Date & Time tt [°C] td [°C] tt 5cm [°C] tt -20cm [°C] tt -100cm [°C] ff [km/h] ff [knt] fx [km/h] fx [knt] dd ppp [hPa] vv [km] rr [mm]
18.06.2018 13:00:00 20,6 18,2 21,5 20,5 20,2 11 6 20 11 SW 1026,2 59 0,0
18.06.2018 12:00:00 19,1 17,9 18,5 20,5 20,1 7 4 20 11 W 1026,4 6 0,4
18.06.2018 11:00:00 18,8 17,8 17,9 20,5 20,1 10 6 21 11 WSW 1026,3 4,8 0,6
18.06.2018 10:00:00 18,4 17,4 17,5 20,6 20,1 9 5 19 10 WSW 1026,3 9 0,0
18.06.2018 09:00:00 18,4 15,6 18,4 20,6 20,1 11 6 20 11 WSW 1026,2 16 0,0
18.06.2018 08:00:00 18,1 15,2 17,4 20,7 20,1 10 5 19 10 SW 1025,8 20 0,0
18.06.2018 07:00:00 17,7 14,6 16,6 20,8 20,1 10 6 17 9 WSW 1025,7 36 0,0
18.06.2018 06:00:00 17,0 14,1 16,2 20,9 20,1 8 4 13 7 SW 1025,5 41 0,0
18.06.2018 05:00:00 16,6 13,7 15,7 21,0 20,1 6 3 11 6 WSW 1025,6 36 0,0
18.06.2018 04:00:00 16,9 13,4 16,1 21,0 20,1 10 6 16 9 W 1025,7 16 0,0
18.06.2018 03:00:00 16,7 13,0 15,1 21,1 20,1 6 3 10 5 W 1025,7 39 0,0
18.06.2018 02:00:00 15,9 12,6 12,3 21,2 20,1 6 3 10 5 WSW 1026,0 37 0,0
18.06.2018 01:00:00 14,6 11,6 11,4 21,2 20,1 6 3 8 4 W 1026,4 29 0,0
18.06.2018 00:00:00 14,8 11,4 11,8 21,2 20,1 4 2 9 5 W 1026,2 38 0,0
17.06.2018 23:00:00 16,0 11,4 12,2 21,2 20,1 3 2 10 5 WSW 1026,1 41 0,0
17.06.2018 22:00:00 17,5 11,3 16,7 21,2 20,1 6 4 18 10 W 1025,7 49 0,0
17.06.2018 21:00:00 18,0 11,3 18,0 21,0 20,1 11 6 21 12 WNW 1025,7 52 0,0
17.06.2018 20:00:00 18,8 10,6 19,1 20,9 20,1 10 5 26 14 NNW 1025,6 50 0,0
17.06.2018 19:00:00 19,5 10,2 23,0 20,8 20,1 16 9 29 16 WNW 1025,2 49 0,0
17.06.2018 18:00:00 19,4 10,9 22,0 20,6 20,1 19 10 30 16 NW 1025,2 60 0,0
17.06.2018 17:00:00 20,9 12,8 23,9 20,5 20,1 14 8 30 16 W 1024,9 20 0,0
17.06.2018 16:00:00 20,9 12,6 23,6 20,3 20,1 18 10 38 21 WNW 1024,8 52 0,0
17.06.2018 15:00:00 21,0 13,4 22,7 20,2 20,1 21 11 32 17 WNW 1024,7 57 0,0
17.06.2018 14:00:00 20,9 13,1 22,3 20,2 20,1 19 11 32 18 WNW 1024,5 60 0,0
17.06.2018 13:00:00 20,5 12,7 21,2 20,1 20,1 19 10 34 19 W 1024,2 20 0,0
17.06.2018 12:00:00 20,4 13,8 22,4 20,1 20,1 19 10 30 16 SW 1024,3 59 0,0
17.06.2018 11:00:00 19,8 13,9 21,8 20,2 20,1 14 8 25 13 SW 1024,3 55 0,0
17.06.2018 10:00:00 18,9 13,7 21,5 20,2 20,1 13 7 20 11 SSW 1024,3 60 0,0
17.06.2018 09:00:00 18,1 13,8 18,1 20,3 20,1 11 6 17 9 S 1023,9 60 0,0
17.06.2018 08:00:00 16,4 13,9 15,1 20,4 20,1 2 1 6 4 SSW 1023,6 58 0,0
17.06.2018 07:00:00 15,4 13,9 14,4 20,5 20,1 3 2 24 13 WSW 1023,4 42 0,0
17.06.2018 06:00:00 16,0 12,9 15,0 20,5 20,1 14 8 23 13 WNW 1022,8 56 0,0
17.06.2018 05:00:00 15,8 12,4 14,8 20,6 20,1 5 3 9 5 W 1022,4 60 0,0
17.06.2018 04:00:00 15,4 12,9 10,8 20,7 20,1 5 3 8 4 W 1022,7 55 0,0
17.06.2018 03:00:00 14,1 11,6 10,7 20,8 20,1 3 2 7 4 W 1022,7 41 0,0
17.06.2018 02:00:00 14,7 12,2 12,2 20,8 20,1 4 2 7 4 W 1022,7 48 0,0
17.06.2018 01:00:00 14,8 11,2 11,9 20,9 20,1 3 2 7 4 W 1022,8 48 0,0
17.06.2018 00:00:00 14,8 11,2 11,1 20,9 20,1 5 3 6 4 W 1022,9 40 0,0
16.06.2018 23:00:00 16,2 10,9 12,3 20,9 20,1 3 2 8 4 WNW 1022,7 60 0,0
16.06.2018 22:00:00 16,8 10,9 15,5 20,8 20,1 5 3 14 8 WNW 1022,2 59 0,0
16.06.2018 21:00:00 17,8 10,2 16,9 20,7 20,1 6 3 27 14 WNW 1021,6 60 0,0
16.06.2018 20:00:00 18,8 10,4 20,4 20,6 20,1 13 7 25 14 WNW 1021,4 38 0,0
16.06.2018 19:00:00 19,9 9,7 21,9 20,4 20,1 15 8 28 15 NW 1021,0 50 0,0
16.06.2018 18:00:00 20,1 9,9 23,7 20,3 20,1 16 9 30 16 WNW 1020,7 58 0,0
16.06.2018 17:00:00 20,7 9,9 22,6 20,2 20,1 16 8 28 15 WNW 1020,7 20 0,0
16.06.2018 16:00:00 19,9 10,3 21,9 20,1 20,1 15 8 29 16 WNW 1020,7 59 0,0
16.06.2018 15:00:00 19,8 10,2 24,1 20,0 20,1 16 9 26 14 WNW 1020,7 60 0,0
16.06.2018 14:00:00 19,8 10,8 22,7 19,9 20,1 18 10 29 16 WNW 1020,8 60 0,0
16.06.2018 13:00:00 20,1 9,9 24,7 19,9 20,1 15 8 26 14 WNW 1020,5 20 0,0
16.06.2018 12:00:00 20,1 10,5 21,8 19,9 20,1 12 6 22 12 W 1020,5 60 0,0
16.06.2018 11:00:00 18,9 8,8 21,0 20,0 20,1 13 7 22 12 W 1020,4 50 0,0
16.06.2018 10:00:00 18,3 9,4 19,4 20,0 20,1 13 7 23 12 W 1020,2 60 0,0
16.06.2018 09:00:00 17,6 10,7 16,3 20,1 20,1 9 5 16 8 W 1019,9 57 0,0
16.06.2018 08:00:00 15,4 12,0 11,5 20,2 20,1 6 3 9 5 W 1019,3 38 0,0
16.06.2018 07:00:00 12,9 11,1 8,4 20,4 20,1 4 2 8 4 W 1019,1 53 0,0
16.06.2018 06:00:00 14,0 10,8 10,1 20,5 20,1 5 3 12 6 W 1019,1 54 0,0
16.06.2018 05:00:00 14,1 12,1 12,5 20,5 20,0 6 4 10 6 WNW 1019,1 47 0,0
16.06.2018 04:00:00 13,7 12,4 11,7 20,6 20,0 4 2 9 5 NW 1019,2 45 0,0
16.06.2018 03:00:00 13,9 12,8 8,8 20,7 20,0 5 3 7 4 WNW 1019,5 38 0,0
16.06.2018 02:00:00 13,3 12,4 9,0 20,8 20,1 4 2 5 3 W 1019,8 14 0,0
16.06.2018 01:00:00 14,1 13,1 10,5 20,9 20,1 4 2 7 4 NW 1019,7 29 0,0
16.06.2018 00:00:00 14,2 12,6 9,8 20,9 20,0 3 1 4 2 W 1019,8 26 0,0
15.06.2018 23:00:00 15,6 12,3 11,2 20,9 20,0 0 0 12 6 N 1020,0 20 0,0
15.06.2018 22:00:00 17,2 12,7 15,9 20,9 20,0 10 5 20 11 NW 1019,8 47 0,0
15.06.2018 21:00:00 18,5 14,0 18,4 20,9 20,0 10 6 22 12 NW 1019,4 44 0,0
15.06.2018 20:00:00 19,8 13,7 20,4 20,8 20,0 13 7 27 15 NW 1019,1 44 0,0
15.06.2018 19:00:00 19,9 14,3 19,5 20,7 20,0 14 8 23 13 WNW 1019,0 59 0,0
15.06.2018 18:00:00 19,5 16,3 20,2 20,6 20,0 13 7 20 11 WNW 1019,2 40 0,0
15.06.2018 17:00:00 18,7 17,5 18,5 20,6 20,0 10 6 24 13 NW 1019,2 16 1,0
15.06.2018 16:00:00 19,2 15,5 20,3 20,5 20,0 17 9 27 15 W 1019,5 16 0,0
15.06.2018 15:00:00 19,7 16,0 23,0 20,5 20,0 16 8 27 15 SW 1019,3 60 0,0
15.06.2018 14:00:00 19,9 15,7 23,6 20,5 20,0 16 8 27 14 SW 1019,2 60 0,0
15.06.2018 13:00:00 18,9 14,2 20,0 20,5 20,0 15 8 23 13 SSW 1019,2 58 0,0
15.06.2018 12:00:00 18,5 14,6 18,6 20,5 20,0 13 7 23 12 SW 1019,3 51 0,0
15.06.2018 11:00:00 17,9 14,4 18,1 20,6 20,0 13 7 24 13 WSW 1019,1 54 0,0
15.06.2018 10:00:00 16,7 15,1 16,6 20,6 20,0 14 7 26 14 SW 1019,1 39 0,0
15.06.2018 09:00:00 16,3 15,3 15,8 20,7 20,0 6 3 12 7 W 1019,0 13 0,0
15.06.2018 08:00:00 16,2 14,7 15,6 20,8 20,0 6 3 11 6 W 1019,0 12 0,2
15.06.2018 07:00:00 16,1 14,5 15,3 20,9 20,0 0 0 2 1 N 1018,7 20 0,0
15.06.2018 06:00:00 15,7 13,7 14,2 21,0 20,0 2 1 7 4 ESE 1018,5 12 0,0
15.06.2018 05:00:00 15,5 13,5 13,4 21,0 20,0 3 2 8 4 WNW 1018,6 42 0,0
15.06.2018 04:00:00 15,6 13,1 13,8 21,2 20,0 4 2 8 5 W 1018,9 42 0,0
15.06.2018 03:00:00 16,4 14,2 15,2 21,2 20,0 0 0 4 2 N 1019,1 34 0,0
15.06.2018 02:00:00 15,7 13,7 12,5 21,3 20,0 0 0 4 2 N 1019,6 34 0,0
15.06.2018 01:00:00 16,1 13,0 13,3 21,3 20,0 3 1 7 4 W 1019,9 40 0,0
15.06.2018 00:00:00 16,9 13,0 15,7 21,3 19,9 3 1 8 4 W 1019,8 54 0,0
14.06.2018 23:00:00 17,2 12,7 16,3 21,3 20,0 3 2 9 5 WNW 1020,0 60 0,0
14.06.2018 22:00:00 17,5 12,4 16,9 21,2 19,9 6 3 16 9 WNW 1019,9 60 0,0
14.06.2018 21:00:00 18,0 12,0 18,1 21,2 20,0 10 6 24 13 WNW 1020,0 60 0,0
14.06.2018 20:00:00 18,7 12,7 19,1 21,0 19,9 16 9 26 14 WNW 1019,9 51 0,0
14.06.2018 19:00:00 19,0 12,5 21,1 20,8 19,9 16 9 30 16 NW 1019,8 36 0,0
14.06.2018 18:00:00 20,0 12,2 23,3 20,6 20,0 15 8 29 16 WNW 1019,8 26 0,0
14.06.2018 17:00:00 20,8 12,2 26,2 20,5 20,0 19 10 33 18 NW 1019,8 21 0,0
14.06.2018 16:00:00 21,2 12,6 25,4 20,4 20,0 21 12 35 19 NW 1020,2 22 0,0
14.06.2018 15:00:00 20,7 11,6 25,2 20,2 20,0 18 10 38 20 WNW 1020,2 23 0,0
14.06.2018 14:00:00 20,7 10,8 24,7 20,2 19,9 18 10 42 23 NW 1020,3 24 0,0
14.06.2018 13:00:00 20,0 12,5 23,1 20,2 19,9 16 9 29 16 WNW 1020,4 26 0,0
14.06.2018 12:00:00 19,3 13,2 20,6 20,3 19,9 18 10 30 16 WNW 1020,3 19 0,0
14.06.2018 11:00:00 19,3 13,5 20,0 20,4 20,0 19 11 32 17 WNW 1020,0 16 0,0
14.06.2018 10:00:00 18,8 13,6 18,9 20,4 19,9 17 9 26 14 W 1019,8 22 0,0
14.06.2018 09:00:00 18,9 13,5 18,1 20,5 19,9 8 5 16 9 WNW 1019,7 33 0,0
14.06.2018 08:00:00 16,7 15,1 14,9 20,6 19,9 4 2 8 5 W 1019,6 31 0,0
14.06.2018 07:00:00 14,5 13,7 11,6 20,7 19,9 3 2 5 3 W 1019,5 24 0,0
14.06.2018 06:00:00 14,6 13,5 11,1 20,8 19,9 0 0 7 4 N 1019,4 3,1 0,0
14.06.2018 05:00:00 15,0 13,9 11,5 20,9 19,9 4 2 5 3 WNW 1019,5 20 0,0
14.06.2018 04:00:00 15,4 13,4 12,0 21,0 19,9 3 2 11 6 W 1019,9 22 0,0
14.06.2018 03:00:00 16,5 14,0 15,0 21,1 19,9 8 5 17 9 WNW 1020,2 22 0,0
14.06.2018 02:00:00 16,9 14,0 15,6 21,2 19,9 9 5 16 9 WNW 1020,5 23 0,0
14.06.2018 01:00:00 16,8 14,1 15,0 21,2 19,9 8 4 14 7 WNW 1020,7 21 0,0
14.06.2018 00:00:00 17,2 14,3 16,1 21,2 19,9 7 4 23 12 NW 1020,8 23 0,0
13.06.2018 23:00:00 17,5 14,4 16,4 21,2 19,9 10 5 21 11 NW 1020,6 23 0,0
13.06.2018 22:00:00 17,7 14,4 16,6 21,2 19,9 11 6 29 15 NW 1020,1 22 0,0
13.06.2018 21:00:00 18,3 14,2 18,4 21,1 19,9 18 10 33 18 NW 1019,7 16 0,0
13.06.2018 20:00:00 19,2 13,6 21,7 20,9 19,9 18 10 37 20 NNW 1019,6 21 0,0
13.06.2018 19:00:00 19,8 13,9 22,4 20,8 19,9 25 14 37 20 NW 1019,2 19 0,0
13.06.2018 18:00:00 20,8 14,2 24,0 20,6 19,9 24 13 41 22 NW 1019,4 18 0,0
13.06.2018 17:00:00 21,4 14,8 24,8 20,4 19,9 25 13 42 23 NW 1019,5 17 0,0
13.06.2018 16:00:00 21,1 14,7 24,3 20,2 19,9 24 13 40 22 NW 1019,6 18 0,0
13.06.2018 15:00:00 21,4 15,7 25,0 20,0 19,9 24 13 39 21 NW 1019,4 17 0,0
13.06.2018 14:00:00 22,3 14,9 25,5 20,0 19,9 18 10 32 17 WNW 1019,6 15 0,0
13.06.2018 13:00:00 22,1 14,2 27,8 19,9 19,9 18 10 29 16 WNW 1019,6 21 0,0
13.06.2018 12:00:00 21,7 13,8 21,9 19,9 19,9 16 9 25 14 WNW 1019,4 22 0,0
13.06.2018 11:00:00 22,0 13,6 27,3 19,9 19,9 14 7 21 11 NNW 1019,1 27 0,0
13.06.2018 10:00:00 20,6 13,1 24,0 20,0 19,9 10 5 21 11 N 1018,9 20 0,0
13.06.2018 09:00:00 19,4 14,4 21,0 20,0 19,9 13 7 22 12 N 1018,7 19 0,0
13.06.2018 08:00:00 18,5 14,4 16,4 20,1 19,9 11 6 17 9 N 1018,3 20 0,0
13.06.2018 07:00:00 17,3 14,0 16,5 20,2 19,9 11 6 19 10 NNW 1017,9 32 0,0
13.06.2018 06:00:00 18,0 13,9 17,4 20,2 19,9 12 6 27 14 NNW 1017,5 60 0,0
13.06.2018 05:00:00 18,2 14,1 17,6 20,3 19,9 16 9 28 15 N 1017,4 58 0,0
13.06.2018 04:00:00 18,3 14,6 17,8 20,4 19,9 14 7 31 17 NNW 1017,1 60 0,0
13.06.2018 03:00:00 18,6 14,9 17,8 20,4 19,9 14 8 31 17 NNW 1016,6 59 0,0
13.06.2018 02:00:00 18,8 15,3 17,9 20,5 19,9 15 8 26 14 NNW 1016,7 47 0,0
13.06.2018 01:00:00 18,7 16,8 17,9 20,5 19,9 13 7 27 14 NW 1016,5 30 0,0
13.06.2018 00:00:00 18,2 16,2 17,2 20,6 19,9 9 5 31 17 WNW 1016,4 33 0,0
12.06.2018 23:00:00 18,4 16,2 17,0 20,5 19,9 14 7 27 15 NW 1016,3 15 0,0
12.06.2018 22:00:00 18,5 15,6 18,0 20,5 19,9 16 9 28 15 NW 1015,6 35 0,0
12.06.2018 21:00:00 18,8 15,8 18,3 20,4 19,9 13 7 35 19 WNW 1014,9 58 0,0
12.06.2018 20:00:00 19,6 15,5 19,5 20,4 19,9 17 9 36 20 NW 1014,2 16 0,0
12.06.2018 19:00:00 19,6 15,9 19,7 20,2 19,9 16 8 31 17 NW 1013,6 51 0,0
12.06.2018 18:00:00 20,0 15,2 22,1 20,1 19,9 19 10 29 16 NW 1013,4 41 0,0
12.06.2018 17:00:00 20,2 15,4 23,3 20,0 19,9 21 11 31 17 WNW 1013,1 60 0,0
12.06.2018 16:00:00 19,7 14,3 22,0 19,8 19,9 15 8 29 16 N 1012,9 12 0,0
12.06.2018 15:00:00 20,6 14,7 24,4 19,7 19,9 16 9 28 15 N 1012,4 28 0,0
12.06.2018 14:00:00 19,7 15,6 23,4 19,7 19,9 15 8 26 14 N 1012,0 51 0,0
12.06.2018 13:00:00 20,1 15,5 22,0 19,6 19,9 16 9 30 16 NNE 1011,2 60 0,0

tt = Température de l'air
td = dewpoint
tt 5cm = Température de l'air 5cm
tt -20cm = Température de l'air -20cm
tt -100cm = Température de l'air -100cm
ff = Vitesse du vent
fx = gusts
dd = Direction du vent
ppp = reduced air pressure
vv = visibility
rr = Quantités de précipitations

stations d'obs. à proximité